Location: Baix
(44.7118°N, 4.7648°E)
Time: 05:56:37
(UTC+00:00)

Vanguard 1 - Pass Details

Date: 27 November 2020
Orbit: 648 x 3834 km, 34.3° (Epoch: 21 January)

Event Time Altitude Azimuth Distance (km) Brightness Sun altitude
Rises 12:35:44 0° 270° (W) 6,193 14.4 22.3°
Reaches altitude 10° 12:41:51 10° 252° (WSW) 5,750 14.6 21.9°
Maximum altitude 12:51:28 17° 220° (SW) 5,854 15.7 21.4°
Drops below altitude 10° 13:02:52 10° 189° (S) 6,866 16.2 20.6°
Sets 13:11:53 0° 173° (S) 7,952 15.6 19.9°
